Location: Ammareddip?lem
(16.9681°N, 80.4999°E)
Time: 03:28:29
(UTC+00:00)

N. Korean satellite - Visible Passes

Search period start: 21 October 2021 00:00
Search period end: 31 October 2021 00:00
Orbit: 450 x 495 km, 97.3° (Epoch: 20 October)

Date Brightness Start Highest point End Pass type
(mag) Time Alt. Az. Time Alt. Az. Time Alt. Az.
21 Oct 10.0 22:50:49 10° ENE 22:52:31 13° E 22:54:12 10° SE visible
22 Oct 6.7 23:54:04 10° N 23:57:35 51° WNW 00:01:03 10° SSW visible
23 Oct 7.5 23:26:03 10° NNE 23:29:33 49° E 23:33:00 10° S visible
24 Oct 9.6 22:58:59 10° NE 23:01:26 18° E 23:03:53 10° SE visible
26 Oct 7.1 00:03:07 10° N 00:06:26 35° WNW 00:09:41 10° SW visible
26 Oct 6.8 23:34:49 10° NNE 23:38:24 72° E 23:41:55 10° S visible
27 Oct 9.0 23:07:21 10° NE 23:10:17 24° E 23:13:10 10° SSE visible
29 Oct 7.5 00:12:12 10° NNW 00:15:11 25° WNW 00:18:09 10° SW visible
29 Oct 6.4 23:43:36 10° N 23:47:10 78° W 23:50:40 10° SSW visible
30 Oct 8.4 23:15:49 10° NE 23:19:02 32° E 23:22:12 10° SSE visible
